DW9356 Weather Reports


Display with metric or nautical units.
time (UTC)temp
F
wind
direction
speed
MPH
gust
MPH
rain 1hr
in
rain 24hr
in
rain mn
in
humidity
%
barometer
mb
20260903193111 79 61 0.0 3.0 0.14 0.53 0.14 93 1013.7
20260903192552 79 66 0.0 3.0 0.14 0.53 0.14 92 1013.8
20260903192054 79 148 0.0 1.0 0.13 0.52 0.13 92 1013.8
20260903191750 80 148 0.0 1.0 0.13 0.52 0.13 91 1013.9
20260903191006 80 148 0.0 1.0 0.12 0.51 0.12 91 1013.9
20260903190440 80 148 0.0 1.0 0.08 0.47 0.09 90 1013.7
20260903185921 80 148 0.0 1.0 0.04 0.43 0.04 90 1013.8
20260903185421 80 148 0.0 1.0 0.00 0.39 0.00 90 1014.1
20260903184923 80 149 0.0 1.0 0.00 0.39 0.00 89 1014.3
20260903184402 80 149 0.0 1.0 0.00 0.39 0.00 89 1014.4
20260903183840 80 150 0.0 1.0 0.00 0.39 0.00 89 1014.3
20260903183816 80 149 1.0 3.0 0.00 0.39 0.00 88 1014.5
20260903183059 80 149 1.0 5.0 0.00 0.39 0.00 88 1014.4
20260903182555 81 18 1.0 5.0 0.00 0.39 0.00 87 1014.1
20260903181833 81 147 0.0 3.0 0.00 0.39 0.00 86 1014.3
20260903181335 82 148 2.0 11.0 0.00 0.39 0.00 85 1014.1
20260903180827 82 141 3.0 11.0 0.00 0.39 0.00 84 1013.9
20260903180328 82 80 3.0 14.0 0.00 0.39 0.00 83 1014.2
20260903175825 83 86 5.0 14.0 0.00 0.39 0.00 83 1014.2
20260903175326 84 60 7.0 16.0 0.00 0.39 0.00 83 1014.2
20260903174818 85 96 3.0 16.0 0.00 0.39 0.00 83 1014.3
20260903174316 86 94 1.0 4.0 0.00 0.39 0.00 85 1014.5
20260903173812 87 38 1.0 4.0 0.00 0.39 0.00 84 1014.4
20260903173306 87 42 1.0 3.0 0.00 0.39 0.00 84 1014.3
20260903172805 87 35 1.0 3.0 0.00 0.39 0.00 84 1014.2
20260903172300 87 53 1.0 3.0 0.00 0.39 0.00 84 1014.2
20260903172024 87 343 1.0 3.0 0.00 0.39 0.00 84 1014.1
20260903171453 87 339 0.0 3.0 0.00 0.39 0.00 83 1013.9
20260903170707 87 39 1.0 3.0 0.00 0.39 0.00 82 1014.0
20260903170207 87 327 1.0 5.0 0.00 0.39 0.00 83 1014.1
20260903165643 87 40 1.0 5.0 0.00 0.39 0.00 83 1014.1
20260903165341 87 340 1.0 5.0 0.00 0.39 0.00 84 1014.1
20260903164552 88 292 1.0 5.0 0.00 0.39 0.00 84 1014.3
20260903164311 88 256 0.0 3.0 0.00 0.39 0.00 84 1014.4
20260903163549 87 254 0.0 3.0 0.00 0.39 0.00 84 1014.3
20260903163048 87 253 0.0 3.0 0.00 0.39 0.00 85 1014.2
20260903162523 87 254 0.0 3.0 0.00 0.39 0.00 84 1014.2
20260903162022 87 239 0.0 2.0 0.00 0.39 0.00 86 1014.2
20260903161453 86 244 0.0 2.0 0.00 0.39 0.00 87 1014.1
20260903160957 85 248 0.0 1.0 0.00 0.39 0.00 88 1014.1
20260903160429 85 248 0.0 4.0 0.00 0.39 0.00 88 1014.1
20260903155905 85 275 0.0 3.0 0.00 0.39 0.00 88 1014.1
20260903155402 85 271 0.0 3.0 0.00 0.39 0.00 88 1014.2
20260903154901 85 264 0.0 3.0 0.00 0.39 0.00 88 1014.1
20260903154338 85 188 0.0 2.0 0.00 0.39 0.00 89 1014.2
20260903153820 85 188 0.0 1.0 0.00 0.39 0.00 88 1014.2
20260903153243 85 186 0.0 1.0 0.00 0.39 0.00 89 1014.2
20260903152740 85 185 0.0 1.0 0.00 0.39 0.00 89 1014.2
20260903152220 85 185 0.0 3.0 0.00 0.39 0.00 89 1014.2
20260903151719 85 185 0.0 3.0 0.00 0.39 0.00 90 1014.3
20260903151208 84 185 1.0 3.0 0.00 0.39 0.00 90 1014.3
20260903150650 84 193 1.0 4.0 0.00 0.39 0.00 90 1014.3
20260903150147 84 157 1.0 4.0 0.00 0.39 0.00 90 1014.4
20260903145623 84 138 1.0 3.0 0.00 0.39 0.00 91 1014.4
20260903145053 84 152 1.0 3.0 0.00 0.39 0.00 91 1014.6
20260903144808 84 152 0.0 3.0 0.00 0.39 0.00 92 1014.6
20260903144049 83 151 0.0 3.0 0.00 0.39 0.00 92 1014.6
20260903143752 83 149 0.0 4.0 0.00 0.39 0.00 92 1014.5
20260903143000 83 139 1.0 4.0 0.00 0.39 0.00 93 1014.5
20260903142439 83 172 0.0 4.0 0.00 0.39 0.00 94 1014.5
20260903141937 83 164 1.0 3.0 0.00 0.39 0.00 94 1014.4
20260903141440 82 165 1.0 3.0 0.00 0.39 0.00 94 1014.4
20260903140916 82 128 1.0 4.0 0.00 0.39 0.00 94 1014.4
20260903140614 82 122 1.0 4.0 0.00 0.39 0.00 95 1014.4
20260903135847 81 157 1.0 4.0 0.00 0.39 0.00 95 1014.4
20260903135546 81 155 1.0 4.0 0.00 0.39 0.00 95 1014.4
20260903135239 81 158 1.0 3.0 0.00 0.39 0.00 95 1014.4
20260903134256 81 190 0.0 3.0 0.00 0.39 0.00 95 1014.4
20260903133750 80 213 0.0 1.0 0.00 0.39 0.00 95 1014.3
20260903133223 80 213 0.0 1.0 0.00 0.39 0.00 94 1014.3
20260903132657 80 213 0.0 0.0 0.00 0.39 0.00 94 1014.3
20260903132154 80 213 0.0 0.0 0.00 0.39 0.00 94 1014.2
20260903131627 80 213 0.0 1.0 0.00 0.39 0.00 94 1014.1
20260903131101 80 213 0.0 0.0 0.00 0.39 0.00 93 1014.1
20260903130536 80 213 0.0 1.0 0.00 0.39 0.00 93 1014.0
20260903130009 80 213 0.0 1.0 0.00 0.39 0.00 93 1014.0
20260903125934 80 213 0.0 2.0 0.00 0.39 0.00 93 1014.0
20260903125206 80 213 0.0 2.0 0.00 0.39 0.00 92 1013.7
20260903125149 80 213 0.0 2.0 0.00 0.39 0.00 92 1014.0
20260903125120 80 213 0.0 2.0 0.00 0.39 0.00 92 1013.8
20260903125049 80 213 0.0 2.0 0.00 0.39 0.00 92 1013.8
20260903123416 80 213 0.0 2.0 0.00 0.39 0.00 92 1013.7
20260903123112 80 213 0.0 2.0 0.00 0.39 0.00 92 1013.6
20260903122323 81 214 0.0 2.0 0.00 0.39 0.00 92 1013.5
20260903121819 81 218 0.0 2.0 0.00 0.39 0.00 93 1013.5
20260903121254 81 219 0.0 2.0 0.00 0.39 0.00 93 1013.5
20260903120729 81 220 0.0 2.0 0.00 0.39 0.00 93 1013.4
20260903120424 81 222 1.0 5.0 0.00 0.39 0.00 93 1013.4
20260903120149 81 135 1.0 5.0 0.00 0.39 0.00 93 1013.4
20260903115200 81 175 0.0 3.0 0.00 0.39 0.00 93 1013.4
20260903114631 81 173 0.0 2.0 0.00 0.39 0.00 93 1013.3
20260903114349 81 180 0.0 3.0 0.00 0.39 0.00 94 1013.3
20260903113843 81 180 0.0 3.0 0.00 0.39 0.00 93 1013.2
20260903113125 81 188 0.0 2.0 0.00 0.39 0.00 94 1013.2
20260903112552 81 187 0.0 2.0 0.00 0.39 0.00 93 1013.2
20260903112050 81 187 0.0 2.0 0.00 0.39 0.00 93 1013.2
20260903111522 81 188 0.0 2.0 0.00 0.39 0.00 93 1013.3
20260903110955 81 186 0.0 4.0 0.00 0.39 0.00 93 1013.3
20260903110429 81 186 1.0 4.0 0.00 0.39 0.00 93 1013.3
20260903105925 81 186 0.0 4.0 0.00 0.39 0.00 93 1013.3
20260903105400 81 179 0.0 2.0 0.00 0.39 0.00 93 1013.2
20260903104834 81 180 0.0 2.0 0.00 0.39 0.00 94 1013.2
20260903103740 81 180 0.0 2.0 0.00 0.39 0.00 94 1013.1
20260903103229 81 180 1.0 2.0 0.00 0.39 0.00 94 1013.1
20260903102728 81 184 1.0 4.0 0.00 0.39 0.00 94 1013.0
20260903102226 81 157 0.0 3.0 0.00 0.39 0.00 94 1013.0
20260903101710 81 176 0.0 2.0 0.00 0.39 0.00 93 1012.9
20260903101142 81 176 0.0 3.0 0.00 0.39 0.00 94 1012.9
20260903100615 81 175 0.0 3.0 0.00 0.39 0.00 94 1012.9
20260903100111 81 183 0.0 3.0 0.00 0.39 0.00 94 1012.9
20260903095545 81 184 0.0 3.0 0.00 0.39 0.00 94 1013.0
20260903095020 81 179 0.0 4.0 0.00 0.39 0.00 94 1013.0
20260903094454 81 179 1.0 3.0 0.00 0.39 0.00 94 1012.9
20260903093927 81 157 0.0 3.0 0.00 0.39 0.00 94 1012.9
20260903093622 81 156 0.0 2.0 0.00 0.39 0.00 94 1013.0
20260903093119 81 155 0.0 2.0 0.00 0.39 0.00 94 1012.9
20260903092351 81 155 0.0 1.0 0.00 0.39 0.00 94 1012.9
20260903091848 81 153 1.0 4.0 0.00 0.39 0.00 94 1013.0
20260903091610 81 152 1.0 4.0 0.00 0.39 0.00 94 1012.9
20260903090839 81 206 1.0 3.0 0.00 0.39 0.00 94 1012.9
20260903090332 81 200 1.0 3.0 0.00 0.39 0.00 94 1012.9
20260903085808 81 211 0.0 3.0 0.00 0.39 0.00 94 1012.9
20260903085242 81 175 1.0 3.0 0.00 0.39 0.00 95 1012.9
20260903084715 81 175 0.0 3.0 0.00 0.39 0.00 95 1012.9
20260903084149 81 175 0.0 3.0 0.00 0.39 0.00 95 1012.8
20260903083646 81 201 0.0 2.0 0.00 0.39 0.00 95 1012.8
20260903083406 81 201 1.0 2.0 0.00 0.39 0.00 95 1012.8
20260903082639 81 205 1.0 4.0 0.00 0.39 0.00 95 1012.8
20260903082402 81 205 1.0 4.0 0.00 0.39 0.00 95 1012.8
20260903081640 81 209 1.0 6.0 0.00 0.39 0.00 96 1012.7
20260903081137 81 184 1.0 6.0 0.00 0.39 0.00 96 1012.7
20260903080640 81 169 1.0 5.0 0.00 0.39 0.00 96 1012.6
20260903080112 80 150 1.0 5.0 0.00 0.39 0.00 96 1012.7
20260903075814 80 159 0.0 4.0 0.00 0.39 0.00 96 1012.7
20260903075043 80 171 0.0 4.0 0.00 0.39 0.00 96 1012.7
20260903074515 80 189 0.0 4.0 0.00 0.39 0.00 96 1012.6
20260903074218 80 163 0.0 2.0 0.00 0.39 0.00 96 1012.6
20260903072858 80 155 0.0 4.0 0.00 0.39 0.00 97 1012.7
20260903072330 80 174 0.0 4.0 0.00 0.39 0.00 97 1012.7
20260903071828 80 161 0.0 2.0 0.00 0.39 0.00 97 1012.7
20260903071324 80 157 0.0 2.0 0.00 0.39 0.00 97 1012.7
20260903070822 80 154 1.0 6.0 0.00 0.39 0.00 97 1012.8
20260903070255 80 139 0.0 3.0 0.00 0.39 0.00 97 1012.9
20260903065750 80 163 0.0 4.0 0.00 0.39 0.00 97 1013.1
20260903065247 80 161 0.0 4.0 0.00 0.39 0.00 97 1013.1
20260903064729 80 162 1.0 5.0 0.00 0.39 0.00 97 1013.1
20260903064451 80 204 1.0 5.0 0.00 0.39 0.00 97 1013.0
20260903063728 80 178 1.0 7.0 0.00 0.39 0.00 97 1012.9
20260903063200 80 190 1.0 6.0 0.00 0.39 0.00 97 1012.8
20260903062657 80 187 1.0 6.0 0.00 0.39 0.00 97 1012.9
20260903062127 80 187 1.0 5.0 0.00 0.39 0.00 97 1013.0
20260903061600 80 163 1.0 5.0 0.00 0.39 0.00 97 1013.2
20260903061058 80 169 1.0 4.0 0.00 0.39 0.00 97 1013.2
20260903060543 80 170 0.0 2.0 0.00 0.39 0.00 97 1013.3
20260903060043 80 184 0.0 1.0 0.00 0.39 0.00 97 1013.4
20260903055545 80 194 0.0 2.0 0.00 0.39 0.00 97 1013.5
20260903055042 80 194 0.0 2.0 0.00 0.39 0.00 97 1013.6
20260903054540 80 191 0.0 2.0 0.00 0.39 0.00 97 1013.7
20260903054012 80 314 0.0 1.0 0.00 0.39 0.00 97 1013.9
20260903053510 80 317 0.0 1.0 0.00 0.39 0.00 97 1014.0
20260903052944 80 317 0.0 1.0 0.00 0.39 0.00 97 1014.0
20260903052417 80 317 0.0 1.0 0.00 0.39 0.00 97 1014.0
20260903051913 80 317 0.0 1.0 0.00 0.39 0.00 97 1014.1
20260903051347 79 317 0.0 0.0 0.00 0.39 0.00 97 1014.2
20260903050843 79 317 0.0 0.0 0.00 0.39 0.00 97 1014.3
20260903050346 79 317 0.0 0.0 0.00 0.39 0.00 97 1014.3
20260903045819 79 317 0.0 1.0 0.00 0.39 0.39 97 1014.3
20260903045317 79 317 0.0 1.0 0.00 0.39 0.39 97 1014.3
20260903044814 79 317 0.0 1.0 0.00 0.39 0.39 97 1014.3
20260903044310 80 317 0.0 2.0 0.00 0.39 0.39 96 1014.3
20260903043745 80 318 1.0 4.0 0.00 0.39 0.39 96 1014.5
20260903043232 80 316 1.0 4.0 0.00 0.39 0.39 96 1014.6
20260903042735 81 192 0.0 1.0 0.00 0.39 0.39 97 1014.5
20260903042208 80 192 0.0 1.0 0.00 0.39 0.39 97 1014.5
20260903041705 80 191 0.0 1.0 0.00 0.39 0.39 97 1014.5
20260903041159 80 191 0.0 1.0 0.00 0.39 0.39 97 1014.4
20260903040656 80 191 0.0 1.0 0.00 0.39 0.39 97 1014.3
20260903040152 80 191 0.0 4.0 0.00 0.39 0.39 97 1014.2
20260903035648 79 191 0.0 4.0 0.00 0.39 0.39 97 1014.0
20260903035146 79 95 0.0 0.0 0.00 0.39 0.39 96 1013.9
20260903034620 79 95 0.0 0.0 0.00 0.39 0.39 96 1013.9
20260903034116 78 95 0.0 0.0 0.00 0.39 0.39 96 1013.9
20260903033549 78 95 0.0 0.0 0.00 0.39 0.39 96 1013.8
20260903033047 78 95 0.0 0.0 0.00 0.39 0.39 96 1013.8
20260903032743 78 95 0.0 0.0 0.00 0.39 0.39 96 1013.8
20260903031953 79 95 0.0 0.0 0.00 0.39 0.39 96 1013.8
20260903031449 79 95 0.0 0.0 0.00 0.39 0.39 96 1013.8
20260903030924 79 95 0.0 0.0 0.00 0.39 0.39 95 1013.8
20260903030357 79 95 0.0 0.0 0.01 0.39 0.39 96 1013.6
20260903025854 78 96 0.0 0.0 0.01 0.39 0.39 95 1013.5
20260903025327 78 96 0.0 0.0 0.01 0.39 0.39 95 1013.4
20260903024824 78 96 0.0 2.0 0.01 0.39 0.39 95 1013.3
20260903024520 78 96 0.0 2.0 0.02 0.39 0.39 95 1013.2
20260903023731 78 115 0.0 1.0 0.05 0.39 0.39 95 1013.1
20260903023229 78 115 0.0 1.0 0.09 0.39 0.39 95 1013.0
20260903022701 78 115 0.0 1.0 0.25 0.39 0.39 95 1013.0
20260903022421 79 115 0.0 1.0 0.35 0.39 0.39 94 1012.9
20260903021631 79 115 0.0 2.0 0.37 0.39 0.39 94 1012.7
20260903021352 79 115 0.0 2.0 0.39 0.39 0.39 94 1012.7
20260903020603 79 114 0.0 2.0 0.38 0.38 0.38 94 1012.5
20260903020321 79 115 0.0 2.0 0.38 0.38 0.38 93 1012.4
20260903015546 79 111 0.0 2.0 0.38 0.38 0.38 93 1012.3
20260903015049 79 98 0.0 2.0 0.38 0.38 0.38 93 1012.1
20260903014536 79 118 1.0 6.0 0.38 0.38 0.38 92 1012.3
20260903014038 79 80 1.0 8.0 0.36 0.36 0.36 92 1012.5
20260903013511 80 172 1.0 8.0 0.31 0.31 0.31 91 1013.1
20260903013009 80 83 2.0 9.0 0.25 0.25 0.25 90 1013.0
20260903012506 81 44 3.0 9.0 0.07 0.07 0.09 89 1013.1
20260903011947 82 35 3.0 14.0 0.03 0.03 0.03 87 1013.2
20260903011413 83 97 4.0 14.0 0.00 0.00 0.00 86 1013.3
20260903010910 84 9 6.0 14.0 0.00 0.00 0.00 83 1012.9
20260903010344 85 5 5.0 12.0 0.00 0.00 0.00 81 1012.7
20260903005818 86 334 3.0 12.0 0.00 0.00 0.00 78 1012.7
20260903005251 87 42 3.0 12.0 0.00 0.00 0.00 75 1012.7
20260903005014 89 345 2.0 11.0 0.00 0.00 0.00 71 1012.6
20260903004223 90 219 1.0 8.0 0.00 0.00 0.00 66 1011.9
20260903003655 91 100 2.0 8.0 0.00 0.00 0.00 66 1011.4
20260903003153 91 136 1.0 5.0 0.00 0.00 0.00 66 1011.3
20260903002640 91 144 1.0 7.0 0.00 0.00 0.00 67 1011.3
20260903002143 91 142 1.0 7.0 0.00 0.00 0.00 67 1011.3
20260903001618 91 134 1.0 9.0 0.00 0.00 0.00 67 1011.1
20260903001604 92 115 2.0 10.0 0.00 0.00 0.00 67 1010.9
20260903000546 92 198 2.0 10.0 0.00 0.00 0.00 67 1010.9
20260903000032 92 109 2.0 9.0 0.00 0.00 0.00 66 1010.8
20260902235531 92 148 3.0 9.0 0.00 0.00 0.00 66 1010.8
20260902235254 92 178 2.0 8.0 0.00 0.00 0.00 66 1010.7
20260902234750 92 167 2.0 9.0 0.00 0.00 0.00 66 1010.7
20260902233959 92 169 2.0 7.0 0.00 0.00 0.00 65 1010.6
20260902233457 93 138 1.0 6.0 0.00 0.00 0.00 64 1010.5
20260902232930 93 156 1.0 6.0 0.00 0.00 0.00 64 1010.6
20260902232400 93 173 1.0 5.0 0.00 0.00 0.00 64 1010.7
20260902231857 93 202 2.0 7.0 0.00 0.00 0.00 63 1010.7
20260902231330 93 182 2.0 7.0 0.00 0.00 0.00 64 1010.7
20260902230826 93 192 2.0 7.0 0.00 0.00 0.00 63 1010.7
20260902230323 94 182 3.0 8.0 0.00 0.00 0.00 62 1010.6
20260902225820 94 179 3.0 8.0 0.00 0.00 0.00 62 1010.6
20260902225300 94 205 2.0 7.0 0.00 0.00 0.00 62 1010.4
20260902224758 94 300 2.0 8.0 0.00 0.00 0.00 62 1010.6
20260902224259 94 171 2.0 8.0 0.00 0.01 0.00 62 1010.6
20260902223756 95 167 2.0 9.0 0.00 0.03 0.00 61 1010.7
20260902223256 95 130 2.0 9.0 0.00 0.03 0.00 61 1010.7
20260902222732 95 151 1.0 7.0 0.00 0.03 0.00 62 1010.7
20260902222227 95 196 2.0 9.0 0.00 0.03 0.00 61 1010.7
20260902221950 96 150 2.0 9.0 0.00 0.03 0.00 60 1010.7
20260902221159 96 198 3.0 9.0 0.00 0.03 0.00 60 1010.7
20260902220634 96 130 2.0 9.0 0.00 0.03 0.00 60 1010.8
20260902220107 96 162 2.0 7.0 0.00 0.03 0.00 61 1010.7
20260902215806 96 169 3.0 7.0 0.00 0.03 0.00 60 1010.7
20260902215037 96 148 3.0 10.0 0.00 0.03 0.00 59 1010.7
20260902214533 95 134 2.0 10.0 0.00 0.03 0.00 59 1010.7
20260902214030 96 190 2.0 6.0 0.00 0.03 0.00 59 1010.8
20260902213503 96 180 2.0 8.0 0.00 0.03 0.00 59 1010.9
20260902213001 96 173 2.0 5.0 0.00 0.03 0.00 60 1010.8
20260902212433 96 163 1.0 4.0 0.00 0.03 0.00 60 1010.9
20260902211907 96 55 2.0 7.0 0.00 0.03 0.00 60 1010.9
20260902211348 96 162 2.0 7.0 0.00 0.03 0.00 59 1011.1
20260902210836 96 172 2.0 7.0 0.00 0.03 0.00 57 1011.1
20260902210334 97 175 1.0 4.0 0.00 0.03 0.00 59 1011.1
20260902205825 97 182 1.0 8.0 0.00 0.03 0.00 59 1011.1
20260902205321 97 209 1.0 8.0 0.00 0.03 0.00 57 1011.1
20260902205021 97 194 1.0 9.0 0.00 0.03 0.00 57 1011.1
20260902204253 97 188 2.0 9.0 0.00 0.03 0.00 57 1011.2
20260902203751 97 182 2.0 9.0 0.00 0.03 0.00 58 1011.3
20260902203223 98 170 2.0 9.0 0.00 0.03 0.00 56 1011.4
20260902202721 97 288 2.0 5.0 0.00 0.03 0.00 56 1011.5
20260902202217 98 166 1.0 5.0 0.00 0.03 0.00 57 1011.6
20260902201715 98 187 1.0 7.0 0.00 0.03 0.00 54 1011.6
20260902201203 97 229 1.0 7.0 0.00 0.03 0.00 59 1011.5
20260902200704 97 182 2.0 7.0 0.00 0.03 0.00 57 1011.5
20260902200137 97 180 2.0 7.0 0.00 0.03 0.00 56 1011.7
20260902195635 97 172 2.0 7.0 0.00 0.03 0.00 57 1011.7
20260902195133 97 218 1.0 6.0 0.00 0.03 0.00 56 1011.9
20260902194831 96 178 1.0 5.0 0.00 0.03 0.00 59 1012.1
20260902194104 96 219 1.0 5.0 0.00 0.03 0.00 57 1012.1
20260902193600 96 132 1.0 9.0 0.00 0.03 0.00 57 1012.2